Total_Precipitation_Accumulation
0.03 0.07 0.26 0.35 0.34 0.35 0.34 0.37 0.38 0.40 0.46 0.54 0.55 0.56 0.56 0.51 0.47 0.47 0.45 0.42 0.41 0.46 0.55 0.64 0.67 0.68 0.65 0.57 0.47 0.44 0.42 0.40 0.38 0.38 0.41 0.45 0.44 0.39 0.36 0.35 0.34 0.32 0.46
0.05 0.07 0.21 0.27 0.30 0.34 0.37 0.38 0.35 0.33 0.40 0.48 0.49 0.51 0.54 0.54 0.49 0.53 0.51 0.49 0.48 0.52 0.58 0.64 0.63 0.62 0.58 0.57 0.51 0.42 0.39 0.36 0.30 0.26 0.25 0.28 0.38 0.39 0.37 0.37 0.35 0.40 0.43
0.03 0.06 0.16 0.23 0.27 0.34 0.37 0.34 0.31 0.29 0.34 0.40 0.43 0.48 0.55 0.56 0.53 0.52 0.50 0.48 0.50 0.57 0.61 0.62 0.61 0.59 0.53 0.52 0.55 0.47 0.42 0.35 0.27 0.23 0.19 0.20 0.34 0.45 0.43 0.41 0.38 0.46 0.46
0.02 0.04 0.11 0.21 0.27 0.33 0.35 0.33 0.32 0.31 0.32 0.37 0.42 0.46 0.50 0.52 0.54 0.53 0.49 0.48 0.52 0.60 0.66 0.67 0.67 0.63 0.57 0.53 0.51 0.47 0.49 0.40 0.27 0.20 0.13 0.18 0.34 0.52 0.52 0.49 0.46 0.49 0.49
0.02 0.04 0.11 0.22 0.29 0.34 0.37 0.36 0.34 0.34 0.35 0.37 0.41 0.46 0.54 0.53 0.52 0.49 0.45 0.45 0.50 0.60 0.67 0.68 0.63 0.59 0.58 0.56 0.51 0.49 0.52 0.43 0.27 0.16 0.12 0.17 0.29 0.54 0.53 0.54 0.52 0.48 0.46
0.03 0.04 0.13 0.24 0.31 0.35 0.38 0.39 0.37 0.37 0.40 0.42 0.44 0.49 0.56 0.57 0.56 0.52 0.46 0.43 0.44 0.51 0.59 0.59 0.56 0.57 0.57 0.52 0.46 0.49 0.57 0.49 0.25 0.13 0.15 0.20 0.27 0.54 0.62 0.61 0.55 0.50 0.49
0.03 0.06 0.14 0.27 0.34 0.39 0.41 0.41 0.42 0.42 0.45 0.47 0.50 0.54 0.59 0.59 0.58 0.56 0.54 0.49 0.45 0.45 0.49 0.52 0.52 0.53 0.54 0.50 0.47 0.55 0.62 0.46 0.19 0.17 0.19 0.21 0.29 0.65 0.89 0.80 0.62 0.54 0.52
0.03 0.08 0.17 0.32 0.39 0.44 0.46 0.46 0.47 0.49 0.52 0.54 0.56 0.60 0.61 0.58 0.58 0.57 0.56 0.51 0.46 0.43 0.41 0.44 0.46 0.48 0.49 0.48 0.49 0.52 0.55 0.34 0.16 0.15 0.17 0.19 0.33 0.75 0.99 0.95 0.79 0.65 0.59
0.05 0.10 0.19 0.31 0.39 0.46 0.50 0.50 0.51 0.54 0.56 0.59 0.61 0.63 0.62 0.59 0.59 0.61 0.58 0.52 0.49 0.47 0.42 0.38 0.38 0.39 0.38 0.41 0.44 0.44 0.40 0.26 0.16 0.20 0.18 0.21 0.35 0.78 1.00 1.05 0.94 0.78 0.65
0.09 0.14 0.21 0.32 0.39 0.45 0.51 0.55 0.55 0.57 0.60 0.64 0.67 0.65 0.61 0.62 0.62 0.61 0.55 0.49 0.50 0.51 0.45 0.41 0.39 0.36 0.33 0.32 0.32 0.30 0.24 0.20 0.14 0.20 0.29 0.28 0.33 0.71 0.97 1.00 0.95 0.88 0.75
0.16 0.19 0.27 0.37 0.44 0.49 0.55 0.58 0.64 0.68 0.73 0.76 0.73 0.69 0.70 0.68 0.63 0.55 0.47 0.47 0.51 0.52 0.47 0.44 0.42 0.39 0.36 0.30 0.26 0.22 0.17 0.13 0.14 0.24 0.30 0.32 0.47 0.85 1.08 1.05 1.02 0.95 0.86
0.17 0.22 0.30 0.40 0.47 0.55 0.60 0.68 0.79 0.80 0.81 0.80 0.71 0.67 0.69 0.64 0.60 0.55 0.50 0.49 0.53 0.53 0.51 0.49 0.48 0.46 0.42 0.33 0.32 0.28 0.18 0.14 0.14 0.16 0.20 0.27 0.51 0.95 1.20 1.18 1.19 1.12 1.00
0.14 0.21 0.29 0.42 0.53 0.58 0.62 0.70 0.80 0.82 0.82 0.82 0.76 0.71 0.69 0.71 0.68 0.64 0.59 0.61 0.60 0.57 0.56 0.56 0.59 0.54 0.49 0.45 0.44 0.38 0.28 0.24 0.20 0.16 0.16 0.21 0.36 0.70 1.06 1.21 1.27 1.28 1.25
0.18 0.24 0.33 0.46 0.54 0.58 0.60 0.67 0.73 0.75 0.74 0.74 0.74 0.75 0.77 0.77 0.72 0.69 0.65 0.67 0.68 0.66 0.62 0.61 0.58 0.55 0.52 0.47 0.46 0.43 0.41 0.39 0.29 0.23 0.17 0.18 0.24 0.35 0.62 0.94 1.19 1.33 1.41
0.21 0.28 0.39 0.48 0.55 0.62 0.66 0.70 0.73 0.70 0.66 0.69 0.73 0.77 0.72 0.67 0.61 0.56 0.55 0.54 0.50 0.49 0.49 0.52 0.53 0.52 0.50 0.47 0.42 0.39 0.39 0.41 0.37 0.31 0.26 0.25 0.23 0.26 0.38 0.59 0.89 1.21 1.43
0.24 0.31 0.43 0.52 0.59 0.68 0.67 0.69 0.71 0.69 0.66 0.69 0.69 0.67 0.66 0.62 0.58 0.51 0.48 0.47 0.44 0.40 0.37 0.38 0.38 0.40 0.41 0.39 0.35 0.31 0.32 0.36 0.36 0.34 0.33 0.34 0.29 0.27 0.31 0.43 0.65 0.97 1.32
0.26 0.35 0.45 0.56 0.69 0.75 0.73 0.74 0.76 0.75 0.71 0.69 0.68 0.65 0.65 0.62 0.59 0.57 0.51 0.47 0.45 0.44 0.44 0.42 0.41 0.40 0.37 0.34 0.31 0.29 0.28 0.28 0.32 0.34 0.36 0.37 0.38 0.35 0.34 0.40 0.53 0.77 1.16
0.29 0.40 0.49 0.61 0.76 0.83 0.81 0.81 0.80 0.79 0.80 0.76 0.72 0.69 0.65 0.61 0.59 0.59 0.57 0.53 0.51 0.52 0.53 0.52 0.47 0.44 0.41 0.37 0.34 0.31 0.30 0.28 0.26 0.29 0.34 0.35 0.36 0.36 0.35 0.38 0.49 0.70 0.97
0.29 0.40 0.52 0.62 0.76 0.89 0.94 0.90 0.88 0.83 0.84 0.84 0.78 0.72 0.69 0.63 0.58 0.57 0.56 0.58 0.60 0.64 0.62 0.58 0.53 0.47 0.45 0.41 0.39 0.37 0.34 0.31 0.30 0.30 0.31 0.35 0.37 0.35 0.35 0.37 0.43 0.55 0.75
0.29 0.39 0.52 0.65 0.82 0.94 1.11 1.14 1.11 1.02 0.91 0.88 0.85 0.75 0.68 0.67 0.64 0.62 0.60 0.60 0.65 0.69 0.67 0.64 0.57 0.51 0.47 0.46 0.47 0.44 0.38 0.33 0.31 0.31 0.30 0.32 0.35 0.36 0.36 0.40 0.44 0.43 0.49
0.38 0.43 0.51 0.66 0.83 1.00 1.13 1.20 1.17 1.11 0.95 0.89 0.87 0.82 0.74 0.70 0.72 0.72 0.66 0.67 0.65 0.67 0.64 0.63 0.63 0.61 0.56 0.52 0.57 0.57 0.50 0.41 0.34 0.30 0.31 0.33 0.35 0.40 0.47 0.52 0.58 0.55 0.48
0.43 0.46 0.50 0.62 0.74 0.92 1.05 1.10 1.17 1.12 1.02 0.92 0.89 0.87 0.80 0.71 0.75 0.81 0.75 0.70 0.68 0.66 0.68 0.69 0.67 0.68 0.68 0.63 0.63 0.68 0.63 0.55 0.44 0.33 0.32 0.33 0.37 0.45 0.57 0.62 0.68 0.70 0.63
0.45 0.49 0.54 0.58 0.66 0.78 1.03 1.25 1.38 1.42 1.30 1.13 1.01 0.92 0.82 0.74 0.69 0.77 0.81 0.75 0.71 0.69 0.67 0.65 0.65 0.64 0.68 0.63 0.59 0.78 0.83 0.61 0.40 0.30 0.27 0.29 0.30 0.33 0.37 0.45 0.53 0.59 0.66
0.44 0.54 0.63 0.62 0.68 0.78 0.96 1.26 1.42 1.46 1.34 1.09 0.93 0.90 0.87 0.81 0.74 0.71 0.79 0.81 0.78 0.76 0.72 0.66 0.64 0.64 0.70 0.72 0.63 0.59 0.63 0.61 0.61 0.42 0.27 0.25 0.25 0.26 0.25 0.28 0.33 0.40 0.51
0.44 0.56 0.68 0.74 0.79 0.88 0.95 1.13 1.36 1.47 1.39 1.25 1.11 1.00 0.94 0.92 0.87 0.78 0.75 0.80 0.81 0.80 0.79 0.74 0.69 0.70 0.72 0.76 0.73 0.63 0.56 0.49 0.51 0.59 0.41 0.29 0.28 0.26 0.26 0.26 0.29 0.30 0.35
0.42 0.51 0.67 0.80 0.83 0.95 1.00 1.10 1.23 1.40 1.50 1.47 1.36 1.23 1.08 1.02 0.97 0.94 0.81 0.78 0.80 0.81 0.82 0.79 0.73 0.72 0.74 0.75 0.73 0.70 0.70 0.67 0.55 0.58 0.53 0.37 0.33 0.31 0.32 0.33 0.33 0.32 0.33